sat.trackr.live / text

‹ back to catalog

STARLINK-3140

NORAD 49460 · 2021-104BE

PAYLOAD ACTIVE UNKNOWN

§ Identity

Operator
Country
US
Launch date
2021-11-13
Launch site
AFETR
Launch vehicle
Mass (kg)
RCS (m²)

Purposes: comms

External: N2YO · Heavens-Above · Gunter

§ Orbital elements

Epoch: 2026-09-20T01:54:22.962816Z

Period
93.85 min
Inclination
53.1606°
Eccentricity
0.0001264
Mean motion
15.34383483 rev/d
Perigee alt
461.9 km
Apogee alt
463.6 km
Semi-major
6,840.9 km
B*
2.4294e-5
RAAN
53.3408°
Arg perigee
73.7877°
Mean anomaly
286.3265°
Rev number
26,829

§ Raw data

STARLINK-31401 49460U 21104BE  26263.07943244  .00000444  00000+0  24294-4 0  99992 49460  53.1606  53.3408 0001264  73.7877 286.3265 15.34383483268292

JSON: /api/v1/satellites/49460 · /tle

For live sub-satellite position, see the globe view (requires WebGL).

§ Visibility from observer

Set your observer location to see the next 7 days of passes ≥ 10°. The values pass through the URL so the page stays shareable.

No JS? Fill the form by hand. The geolocation button needs JavaScript.